Regional Weather Roundup
Issued by NWS

Home | Current Version | Previous Version | Text Only | Print | Product List | Glossary On
Versions: 1 2 3 4 5 6 7 8 9 10 11 12 13 14 15 16 17 18 19 20 21 22 23 24 25 26 27 28 29 30 31 32 33 34 35 36 37 38 39 40 41 42 43 44 45 46 47 48 49 50
000
ASUS44 KMEG 301310
RWRTN
TENNESSEE HOURLY STATE WEATHER ROUNDUP
NATIONAL WEATHER SERVICE MEMPHIS TN
800 AM CDT WED JUL 30 2014

TNZ002-004-019-021-049-052-054-088>092-301400-
WEST TENNESSEE

CITY           SKY/WX    TMP DP  RH WIND       PRES   REMARKS
MEMPHIS INTL   MOSUNNY   69  58  67 S3        30.12R
NWS MEMPHIS      N/A     66 N/A N/A MISG        N/A
JACKSON        SUNNY     64  58  80 CALM      30.13R
DYERSBURG      MOSUNNY   66  54  63 CALM      30.14R
UNION CITY     SUNNY     63  59  88 CALM      30.11R
PARIS          CLOUDY    64  56  75 CALM      30.13R
LEXINGTON      SUNNY     61  57  88 CALM      30.12R
SAVANNAH       SUNNY     60  60 100 CALM      30.13R
$$

TNZ008-025-027-028-033-062-065-066-301400-
NORTH MIDDLE TENNESSEE

CITY           SKY/WX    TMP DP  RH WIND       PRES   REMARKS
NASHVILLE      PTSUNNY   63  58  83 CALM      30.13R
DICKSON        MOSUNNY   63  55  77 CALM      30.12R
PORTLAND       SUNNY     64  59  82 CALM      30.11S
CLARKSVILLE    CLOUDY    62  56  80 CALM      30.12S
LEBANON        MOSUNNY   61  56  83 CALM      30.11R
SMYRNA         MOSUNNY   61  61 100 CALM      30.13R
MURFREESBORO   MOSUNNY   61  56  83 CALM      30.12R
COOKEVILLE     SUNNY     61  57  88 CALM      30.13R
CROSSVILLE     SUNNY     63  55  75 NE5       30.15S
$$

TNZ061-075-076-078-094-096-097-301400-
SOUTH MIDDLE TENNESSEE

CITY           SKY/WX    TMP DP  RH WIND       PRES   REMARKS
LEWISBURG      MOSUNNY   62  57  83 CALM      30.12R
FAYETTEVILLE   SUNNY     61  55  82 E10G25    30.12R
TULLAHOMA      SUNNY     63  57  82 NE5       30.13S
WINCHESTER     SUNNY     61  55  82 CALM      30.12S
MCMINNVILLE    SUNNY     59  59 100 CALM      30.13R
COLUMBIA       SUNNY     63  57  82 CALM      30.11S
SHELBYVILLE    SUNNY     63  59  88 CALM      30.13S
$$

TNZ017-018-042-046-047-301400-
NORTHEAST TENNESSEE

CITY           SKY/WX    TMP DP  RH WIND       PRES   REMARKS
TRI CITIES     SUNNY     59  53  80 CALM      30.15S
ELIZABETHTON   SUNNY     57  52  82 E3          N/A
$$

TNZ012-013-036-069-073-074-301400-
CENTRAL EAST TENNESSEE

CITY           SKY/WX    TMP DP  RH WIND       PRES   REMARKS
KNOXVILLE      MOSUNNY   61  56  83 E5        30.12R
OAK RIDGE      SUNNY     61  57  87 E5        30.14S
GATLINBURG     SUNNY     59  54  82 CALM      30.13S
MORRISTOWN       N/A     61  55  82 E3        30.15R VSB 0
$$

TNZ083-085-099-301400-
SOUTHEAST TENNESSEE

CITY           SKY/WX    TMP DP  RH WIND       PRES   REMARKS
CHATTANOOGA    PTSUNNY   67  55  65 NE10      30.11S
$$

SKY/WX REPORTED AS FAIR MEANS FEW OR NO CLOUDS BELOW
12 THOUSAND FEET.



USA.gov is the U.S. government's official web portal to all federal, state and local government web resources and services.